Wind_Speed
33 34 33 33 34 35 36 38 40 42 45 47 50 52 56 60 64 66 67 65 64 66 69 73 78 82 87 92 98 103 108 114 118 117 115 110 102 93 85 79 75 75 77
32 32 32 33 33 35 38 40 43 46 48 50 53 56 60 64 67 67 65 64 66 69 74 79 84 89 94 100 106 111 116 119 121 117 104 89 79 73 69 67 68 73 78
31 32 32 33 35 38 41 43 46 48 51 53 57 61 65 67 67 65 64 66 70 75 81 87 92 98 103 109 115 118 120 116 108 98 86 74 68 65 65 66 68 70 70
31 31 32 35 38 41 43 46 49 51 53 56 61 65 68 68 66 64 66 70 76 82 88 94 100 106 112 117 119 119 113 102 90 82 77 72 68 67 68 69 65 59 53
30 32 35 38 41 44 46 48 51 53 56 61 65 68 69 67 65 66 70 76 82 88 94 101 107 113 118 119 116 108 99 90 83 79 77 74 70 69 68 65 57 47 40
31 35 38 41 43 45 47 49 52 56 61 65 68 68 66 65 66 70 76 82 88 94 100 107 113 117 116 110 102 95 90 86 82 79 75 71 66 64 60 52 47 41 34
34 37 40 43 45 47 49 51 55 60 64 67 67 65 65 67 70 76 82 87 94 101 107 113 116 113 106 98 91 87 83 77 73 69 63 57 54 49 46 42 39 36 32
37 40 43 46 47 48 50 54 58 62 65 65 63 63 66 71 76 81 86 93 99 106 112 114 110 102 93 88 85 80 72 63 56 51 46 42 39 37 37 36 32 28 26
39 42 44 46 47 50 54 57 60 63 62 60 62 65 70 75 80 86 91 97 104 109 110 106 98 91 85 80 76 68 57 46 39 35 33 31 32 34 34 31 27 24 24
39 41 42 45 49 53 56 58 59 58 57 60 64 69 74 79 85 91 98 103 107 107 101 92 86 81 76 70 63 52 40 31 26 24 25 28 30 31 30 28 26 24 22
40 42 45 49 52 54 56 56 55 55 58 62 66 72 79 85 91 97 103 107 106 100 90 82 76 72 64 56 46 37 29 24 21 21 23 24 25 25 25 25 25 24 23
42 45 47 50 52 53 53 52 54 57 61 65 69 76 83 90 95 101 105 103 97 89 81 74 68 60 49 40 33 28 25 23 22 22 21 21 22 21 22 23 24 26 27
44 45 48 50 51 50 51 53 57 60 64 68 74 81 87 93 100 104 102 94 85 78 71 64 56 46 35 29 25 24 23 21 20 19 20 21 21 21 21 21 23 26 30
43 46 48 48 48 50 52 56 59 63 68 74 80 86 92 98 102 101 94 83 75 68 59 51 42 34 28 25 25 23 21 19 19 19 20 20 20 20 19 19 21 23 26
44 45 46 46 48 51 54 58 63 68 75 81 86 91 96 99 99 95 83 74 65 57 47 39 32 27 27 28 25 22 20 20 20 20 20 20 20 20 19 19 20 22 23
43 44 45 47 49 53 56 62 68 75 81 86 91 95 98 97 91 81 72 64 55 46 38 30 26 25 25 22 20 20 20 21 21 21 21 20 19 18 18 18 20 21 21
43 44 46 48 52 56 60 65 72 79 84 89 93 97 96 89 79 71 62 53 45 38 30 25 25 25 22 19 20 21 22 22 23 23 22 21 19 18 17 17 18 19 19
44 45 48 51 55 59 65 71 76 81 86 90 94 95 88 78 70 62 52 42 36 31 26 25 24 21 21 21 22 22 22 23 23 23 22 20 18 17 16 15 16 16 15
45 48 51 55 59 65 70 75 80 84 88 91 92 86 76 67 61 52 42 35 29 25 25 24 21 22 22 22 21 21 22 22 23 23 22 20 17 15 14 13 13 13 12
47 50 54 59 64 70 75 79 83 87 90 90 85 75 65 58 50 40 33 28 24 23 22 21 21 21 21 21 22 22 22 22 22 22 21 19 17 14 12 11 10 10 9
49 53 59 64 69 74 78 82 86 88 89 84 74 65 57 49 39 31 26 22 21 21 20 20 19 20 21 22 23 23 22 20 20 19 19 18 16 13 11 10 9 8 7
53 59 64 69 73 78 81 84 87 87 83 73 64 56 49 40 30 25 20 19 19 18 17 17 18 19 20 19 20 20 19 18 18 18 17 16 15 14 12 10 8 6 5
58 64 68 73 77 81 83 86 87 83 73 64 56 48 39 29 23 19 17 16 16 16 17 18 19 19 18 17 18 18 18 18 18 18 17 16 15 14 13 11 9 7 4
63 67 72 76 80 82 85 86 83 73 64 57 48 38 28 20 16 13 12 13 14 16 17 18 18 17 17 17 17 18 19 20 21 20 19 18 17 16 15 14 12 10 6
66 71 75 78 80 83 85 81 73 64 57 49 37 27 18 12 9 8 10 13 15 17 18 19 18 17 16 16 17 19 20 21 23 22 21 20 19 19 18 18 17 15 11
70 74 77 79 82 84 80 70 62 56 49 38 26 16 8 5 4 7 11 14 17 19 21 22 21 20 18 17 17 18 19 21 23 23 22 20 20 21 22 22 22 21 19
Wind_Direction
267 273 278 280 283 285 288 291 293 294 295 297 298 299 301 303 304 306 307 307 307 307 307 307 308 308 309 308 307 307 306 305 304 304 303 301 298 295 293 292 293 293 293
270 275 278 281 283 286 290 292 294 294 295 296 298 300 303 305 307 307 308 307 307 308 309 310 310 310 310 309 308 307 307 306 306 305 304 300 297 295 294 294 295 295 295
272 276 279 281 286 289 292 293 293 294 295 297 300 303 305 307 307 307 307 307 308 310 311 311 312 312 311 310 309 309 308 308 306 304 303 301 298 296 295 297 299 299 298
273 277 281 284 288 291 292 292 292 294 297 300 302 305 307 307 307 307 307 308 310 311 312 313 313 313 312 311 310 310 309 307 305 304 302 301 299 297 298 301 302 301 300
276 280 283 287 290 292 291 292 294 297 300 302 305 307 307 307 307 307 308 310 311 312 314 314 314 313 313 313 312 310 308 306 304 302 300 299 298 297 299 302 303 301 301
279 283 287 290 291 291 292 294 297 299 302 304 306 307 307 307 308 308 309 311 312 314 314 314 315 315 314 313 311 309 308 306 304 301 299 298 297 298 301 303 304 305 305
284 287 288 289 290 291 292 296 299 302 304 306 307 308 308 309 310 310 311 312 314 315 315 316 316 316 314 313 311 309 307 305 303 300 300 299 299 301 303 307 310 312 309
286 287 288 290 292 294 297 299 302 304 306 307 307 309 310 311 311 312 313 315 315 316 317 318 317 316 315 313 312 312 311 309 305 303 302 302 304 307 312 317 319 319 315
287 289 291 293 296 298 300 302 304 306 307 308 310 312 312 312 313 315 316 317 318 319 320 319 318 317 316 316 316 317 316 314 311 309 309 311 315 318 321 324 327 328 324
290 292 293 295 297 299 301 304 305 307 308 310 312 312 313 315 316 318 318 319 320 321 320 319 318 317 318 318 319 321 324 323 320 316 317 319 322 324 326 331 336 339 337
290 292 294 297 299 302 304 305 306 308 310 311 313 314 316 318 319 320 321 322 322 322 321 320 319 319 319 319 323 327 331 333 331 328 327 328 331 334 337 341 344 345 345
292 294 297 300 302 303 304 305 307 309 311 312 314 316 318 319 320 321 323 323 323 323 323 322 321 322 322 324 328 332 335 337 337 337 340 344 345 347 347 348 349 348 347
296 298 300 302 303 304 306 308 310 311 312 314 315 317 318 319 321 323 324 324 323 323 323 323 324 326 327 329 332 335 338 341 346 349 349 349 350 352 353 353 353 351 348
298 300 302 303 305 307 309 310 312 313 314 316 317 318 320 321 322 324 324 323 323 323 324 325 327 329 332 335 337 341 347 352 354 352 349 348 349 351 355 356 355 353 352
300 302 303 305 308 309 311 313 315 316 317 318 319 320 321 322 323 324 324 323 324 324 325 326 328 330 333 335 339 346 350 351 349 347 347 347 347 349 354 357 358 358 360
303 305 306 308 309 311 313 316 317 318 319 320 321 322 323 324 325 324 324 324 324 325 327 327 328 329 331 336 341 343 343 342 341 340 340 342 345 348 351 356 0 4 9
306 307 308 310 312 314 315 316 318 319 320 322 323 324 325 325 324 324 325 324 325 327 329 331 330 331 333 337 337 337 336 336 335 334 334 334 336 340 345 351 358 6 13
308 310 311 313 314 315 316 317 319 320 321 323 324 325 325 324 323 324 325 325 326 328 330 330 331 332 334 334 334 335 336 337 337 337 335 333 330 330 334 342 351 2 14
311 312 313 314 315 316 317 319 320 321 323 324 325 325 324 323 324 324 325 326 327 328 328 330 332 333 334 335 336 336 337 339 341 342 342 339 335 330 329 333 341 352 8
313 313 313 314 316 317 318 320 321 323 324 325 325 325 324 324 324 324 325 326 327 328 330 333 336 338 339 338 338 337 336 337 339 342 345 344 341 336 333 331 331 338 354
313 313 314 316 317 318 319 321 322 324 325 326 325 325 325 325 325 324 327 328 329 331 335 340 343 343 341 340 339 340 340 341 342 345 349 352 351 348 345 339 328 322 327
313 315 316 317 318 319 321 322 323 325 326 326 325 325 325 326 326 328 331 333 335 340 346 349 348 346 346 348 352 354 357 357 356 356 360 4 7 6 2 355 344 328 309
314 316 317 318 319 321 322 323 325 326 326 325 325 324 324 325 327 331 336 341 348 355 358 356 355 357 3 10 15 17 17 14 13 12 13 14 15 17 18 19 17 11 345
316 318 319 320 321 322 322 324 326 326 325 325 324 323 323 325 331 338 349 0 8 10 8 6 8 15 23 29 33 34 32 30 28 27 28 29 30 32 32 33 34 33 32
319 320 321 321 321 322 323 325 326 326 326 325 324 323 323 331 344 4 20 27 27 24 21 20 23 29 36 43 44 42 38 35 33 32 34 36 38 40 42 44 44 44 46
322 322 321 321 321 323 325 326 326 326 327 326 324 323 329 357 44 53 51 47 43 38 36 36 39 43 50 53 48 42 36 33 31 32 36 41 45 49 51 51 51 52 54
Height
5706 5705 5704 5701 5699 5696 5693 5690 5686 5682 5677 5672 5666 5660 5654 5647 5639 5631 5621 5611 5602 5592 5582 5573 5562 5551 5540 5527 5513 5498 5482 5461 5447 5447 5436 5417 5398 5382 5371 5358 5346 5335 5325
5698 5697 5696 5693 5690 5688 5685 5681 5677 5672 5667 5662 5655 5648 5642 5634 5625 5616 5606 5595 5586 5576 5565 5554 5543 5530 5517 5502 5486 5470 5453 5433 5411 5400 5396 5382 5369 5356 5347 5339 5330 5318 5304
5691 5690 5688 5685 5683 5680 5676 5672 5667 5662 5657 5650 5643 5636 5628 5620 5610 5600 5590 5580 5569 5558 5546 5534 5521 5507 5492 5475 5457 5438 5420 5401 5380 5363 5358 5352 5344 5336 5326 5319 5310 5299 5284
5684 5682 5680 5678 5675 5671 5667 5662 5657 5652 5645 5638 5631 5623 5614 5604 5594 5584 5574 5564 5552 5539 5526 5511 5496 5481 5463 5445 5426 5406 5386 5369 5355 5342 5333 5328 5322 5314 5304 5296 5289 5280 5267
5676 5674 5672 5669 5666 5661 5657 5652 5646 5640 5633 5626 5618 5608 5598 5588 5578 5568 5558 5547 5534 5520 5505 5489 5471 5453 5434 5413 5391 5372 5354 5342 5332 5322 5313 5306 5301 5293 5285 5277 5269 5263 5256
5668 5666 5664 5660 5656 5652 5647 5641 5635 5628 5620 5612 5603 5593 5582 5572 5562 5552 5540 5529 5515 5499 5483 5466 5447 5427 5405 5384 5363 5345 5330 5317 5307 5298 5290 5284 5279 5273 5267 5260 5253 5247 5242
5660 5658 5655 5651 5646 5641 5635 5629 5623 5615 5607 5597 5587 5577 5567 5557 5547 5535 5523 5510 5495 5477 5459 5441 5421 5399 5377 5358 5342 5327 5313 5299 5286 5275 5269 5265 5261 5258 5253 5248 5241 5233 5227
5652 5649 5645 5640 5635 5630 5624 5618 5610 5602 5592 5582 5572 5562 5552 5542 5531 5519 5506 5492 5475 5455 5434 5412 5393 5374 5354 5337 5321 5308 5294 5281 5270 5262 5257 5253 5250 5246 5241 5237 5231 5226 5220
5643 5639 5634 5630 5625 5619 5612 5605 5597 5588 5578 5568 5558 5548 5538 5527 5514 5501 5487 5472 5454 5433 5411 5388 5366 5350 5335 5318 5303 5290 5279 5269 5261 5254 5249 5245 5242 5238 5233 5229 5225 5221 5215
5633 5629 5625 5620 5614 5607 5600 5592 5583 5574 5565 5555 5545 5534 5522 5510 5496 5481 5465 5449 5432 5414 5392 5370 5349 5332 5317 5303 5290 5279 5270 5263 5257 5251 5247 5242 5238 5234 5228 5223 5219 5215 5210
5624 5620 5615 5609 5602 5595 5587 5578 5570 5562 5553 5544 5533 5521 5507 5493 5477 5459 5440 5420 5402 5386 5369 5353 5336 5319 5305 5293 5283 5274 5266 5260 5255 5250 5246 5241 5236 5231 5226 5221 5215 5210 5206
5614 5609 5604 5597 5590 5583 5575 5566 5558 5550 5541 5531 5520 5507 5491 5474 5457 5439 5419 5398 5378 5362 5348 5334 5320 5307 5296 5287 5279 5272 5266 5260 5254 5249 5245 5240 5235 5230 5225 5220 5214 5207 5201
5603 5598 5592 5585 5578 5570 5563 5555 5547 5538 5529 5518 5506 5493 5476 5457 5438 5419 5400 5381 5363 5348 5335 5321 5309 5298 5290 5283 5277 5271 5266 5260 5254 5249 5244 5239 5235 5230 5224 5219 5213 5207 5199
5592 5587 5580 5573 5566 5559 5552 5544 5534 5525 5515 5503 5491 5476 5459 5439 5420 5402 5384 5367 5353 5339 5326 5314 5303 5294 5287 5281 5276 5270 5264 5258 5253 5249 5244 5239 5234 5229 5224 5219 5214 5208 5201
5582 5576 5569 5563 5556 5548 5539 5530 5521 5510 5498 5486 5472 5456 5439 5422 5403 5384 5367 5354 5341 5329 5318 5309 5300 5293 5286 5279 5273 5268 5263 5258 5253 5248 5243 5239 5233 5228 5223 5219 5214 5208 5202
5571 5565 5559 5552 5545 5537 5528 5517 5505 5494 5480 5465 5449 5433 5416 5399 5383 5369 5355 5341 5330 5320 5312 5304 5298 5291 5285 5279 5273 5268 5263 5258 5253 5247 5242 5237 5233 5228 5223 5219 5214 5209 5203
5561 5555 5548 5541 5533 5525 5516 5506 5494 5479 5462 5446 5430 5414 5397 5381 5367 5355 5344 5332 5322 5314 5307 5301 5295 5290 5284 5278 5273 5267 5262 5256 5251 5246 5241 5236 5232 5228 5223 5219 5215 5210 5206
5550 5544 5537 5529 5521 5512 5503 5492 5480 5466 5451 5432 5414 5397 5382 5366 5354 5344 5334 5325 5317 5310 5304 5299 5293 5287 5282 5276 5271 5266 5260 5255 5249 5243 5238 5234 5230 5226 5223 5219 5215 5212 5208
5540 5533 5526 5518 5509 5499 5489 5477 5463 5449 5433 5418 5402 5385 5370 5356 5344 5334 5326 5320 5314 5308 5302 5297 5291 5286 5280 5274 5269 5264 5258 5253 5247 5242 5236 5232 5227 5224 5221 5218 5215 5213 5210
5529 5522 5514 5505 5496 5485 5473 5460 5446 5431 5417 5401 5386 5373 5361 5349 5338 5329 5322 5316 5311 5306 5300 5295 5289 5284 5278 5272 5267 5261 5256 5250 5245 5240 5235 5230 5225 5222 5218 5216 5214 5212 5210
5518 5510 5502 5492 5482 5470 5457 5443 5429 5415 5401 5385 5371 5359 5349 5340 5331 5324 5319 5314 5309 5304 5298 5293 5288 5282 5276 5271 5265 5259 5253 5248 5243 5238 5234 5229 5224 5220 5217 5215 5213 5211 5210
5507 5498 5489 5479 5467 5454 5441 5427 5413 5399 5385 5371 5359 5348 5339 5332 5326 5321 5316 5312 5307 5302 5297 5292 5287 5281 5276 5270 5264 5258 5252 5247 5243 5238 5233 5228 5224 5220 5217 5214 5212 5210 5209
5495 5486 5475 5464 5452 5438 5425 5411 5398 5384 5370 5358 5349 5340 5333 5327 5323 5318 5314 5310 5306 5301 5297 5292 5286 5281 5275 5270 5265 5259 5254 5249 5244 5239 5234 5230 5226 5222 5218 5215 5212 5210 5209
5483 5472 5461 5449 5436 5423 5409 5396 5382 5369 5357 5348 5339 5332 5327 5324 5320 5317 5314 5311 5307 5302 5297 5292 5287 5282 5276 5272 5267 5263 5258 5252 5247 5243 5238 5233 5229 5225 5221 5217 5214 5211 5209
5469 5457 5445 5433 5420 5408 5395 5381 5368 5356 5346 5338 5331 5326 5323 5321 5319 5317 5315 5312 5308 5304 5299 5294 5288 5283 5279 5275 5271 5267 5262 5258 5253 5247 5242 5238 5233 5229 5225 5221 5217 5214 5211
5453 5441 5430 5417 5405 5392 5379 5367 5356 5346 5337 5330 5325 5323 5321 5321 5320 5318 5316 5314 5310 5306 5301 5296 5291 5287 5282 5279 5275 5272 5268 5263 5258 5253 5248 5243 5239 5235 5231 5227 5223 5219 5215